Hourly Data Report for October 03, 2014

All times are specified in Local Standard Time (LST). Add 1 hour to adjust for Daylight Saving Time where and when it is observed.

KUGAARUK CLIMATE
NUNAVUT

68°32'15.060" N
89°47'47.020" W
15.80 m
2303094
71407
NBB

Download Data

Hourly Data (October 2014)
Hourly Data Report for October 3, 2014
Temp Definition
°C
Dew Point Temp Definition
°C
Rel Hum Definition
%
Wind Dir Definition
10's deg

Wind Spd Definition
km/h
Visibility Definition
km
Stn Press Definition
kPa
Hmdx Definition


Wind Chill Definition


Weather Definition


TIME
00:00 -4.7 -7.9 78 5 21   101.19   -11 LegendNANA
01:00 -4.7 -7.6 80 4 17   101.22   -11 LegendNANA
02:00 -5.0 -8.0 80 5 16   101.25   -11 LegendNANA
03:00 -5.1 -7.9 81 5 13   101.29   -10 LegendNANA
04:00 -5.5 -8.5 79 4 17   101.34   -12 LegendNANA
05:00 -6.0 -8.9 80 5 19   101.40   -13 LegendNANA
06:00 -6.4 -9.3 80 6 21   101.42   -13 LegendNANA
07:00 -6.5 -9.3 80 6 18   101.46   -13 LegendNANA
08:00 -6.2 -9.3 78 7 19   101.50   -13 LegendNANA
09:00 -5.9 -9.2 78 8 15   101.51   -12 LegendNANA
10:00 -5.7 -9.1 77 9 13   101.54   -11 LegendNANA
11:00 -5.4 -8.8 77 8 9   101.60   -9 LegendNANA
12:00 -5.3 -8.5 78 5 14   101.61   -11 LegendNANA
13:00 -5.4 -9.1 75 7 8   101.61   -9 LegendNANA
14:00 -5.3 -8.6 77 8 9   101.63   -9 LegendNANA
15:00 -5.5 -8.6 78 3 9   101.69   -10 LegendNANA
16:00 -5.9 -8.9 79 4 9   101.73   -10 LegendNANA
17:00 -6.0 -9.1 79 7 6   101.76   -9 LegendNANA
18:00 -6.0 -8.9 80 11 4   101.78   -8 LegendNANA
19:00 -6.1 -8.8 81 10 2   101.76   -7 LegendNANA
20:00 -6.0 -8.8 81 0 1   101.77   -6 LegendNANA
21:00 -5.8 -8.7 80 9 6   101.75   -9 LegendNANA
22:00 -5.8 -8.6 80 10 6   101.73   -9 LegendNANA
23:00 -5.9 -8.6 81 9 3   101.74   -7 LegendNANA

Notes on Data Quality.

Legend

  • E = Estimated
  • M = Missing
  • NA = Not Available
  • ‡ = Partner data that is not subject to review by the National Climate Archives
Date modified: